sat.trackr.live / text

‹ back to catalog

STARLINK-3268

NORAD 50190 · 2021-125AL

PAYLOAD ACTIVE UNKNOWN

§ Identity

Operator
Country
US
Launch date
2021-12-18
Launch site
AFWTR
Launch vehicle
Mass (kg)
RCS (m²)

Purposes: comms

External: N2YO · Heavens-Above · Gunter

§ Orbital elements

Epoch: 2026-09-20T00:31:22.454688Z

Period
93.85 min
Inclination
53.1582°
Eccentricity
0.0001007
Mean motion
15.34367395 rev/d
Perigee alt
462.1 km
Apogee alt
463.5 km
Semi-major
6,840.9 km
B*
-1.1029e-4
RAAN
69.6109°
Arg perigee
141.0763°
Mean anomaly
219.0312°
Rev number
26,630

§ Raw data

STARLINK-32681 50190U 21125AL  26263.02178767 -.00004096  00000+0 -11029-3 0  99992 50190  53.1582  69.6109 0001007 141.0763 219.0312 15.34367395266303

JSON: /api/v1/satellites/50190 · /tle

For live sub-satellite position, see the globe view (requires WebGL).

§ Visibility from observer

Set your observer location to see the next 7 days of passes ≥ 10°. The values pass through the URL so the page stays shareable.

No JS? Fill the form by hand. The geolocation button needs JavaScript.